STARLINK-11124, 59952

Orbit data source: Space-Track

STARLINK-11124, 59952 is a payload satellite owned by SpaceX/Seattle (US) in LEO that was launched on Wed, 05 Jun 2024 UTC via an FALCON 9 launch vehicle from the Air Force Eastern Test Range (AFETR). Payload-class satellites include a variety of spacecraft equipped with specific instruments for various scientific and technological missions. These include communications satellites like Starlink; space stations such as the ISS; scientific satellites like the Hubble; Earth observation satellites from companies like Planet Labs, Umbra, and HawkEye 360; GPS; miniature CubeSats for education and research; and military/defense satellites.

Loading next visibility...
Identifier
59952, 2024-107H
Orbit
LEO
Country
Flag of USUS
Related business
Manufacturer
SpaceX/Seattle
Mission
Operational spacecraft
Bus & Motor
STARLINK V2MD, Unknown motor
Mass
960 kg wet, ~910 kg dry
Launch date (UTC)
2024-06-05 (1 year ago)
Launch vehicle
FALCON 9
Launch site
Air Force Eastern Test Range (AFETR)
Object type
Payload
Rocket body
Debris
Shape & HBR
Unknown
Radar Cross Section
Large (>1 m²)

Expand to show TLE details & history
Last TLE update: 1 day ago

TLE from 1 day ago
0 STARLINK-11124
1 59952U 24107H   25260.62414304 -.00001941  00000-0 -11157-4 0  9999
2 59952  53.1599  24.4436 0001332  88.8775 271.2396 15.69718702 75030
Epoch: 2025-09-17T14:58Z
TLE epoch observation values (Epoch: 2025-09-17T14:58:45.958Z)
Latitude
0.00001°
Longitude
162.95469°
Altitude
360.598 km
Speed
7.694 km/s
True Right ascension
01h 37m 46s
True Declination
0° 00' 00"
Sunlit
Object was in full shadow at epoch
Visualization orbit readout
Latitude
Unknown
Longitude
Unknown
Altitude
Unknown
Speed
Unknown
Apparent Right ascension
Unknown
Apparent Declination
Unknown
Sunlit
N/A
Visualization observer readout
Local Sidereal Time
13:52:15
Azimuth
Unknown
Elevation
Unknown
Doppler factor
Unknown
Orbital elements
Apogee altitude
360.86 km
Perigee altitude
359.065 km
Semi-major axis
6,738.1 km
Eccentricity
0.00013
Inclination
53.1599°
RAAN
24.4436°
Arg. of periapsis
88.8775°
True anomaly
271.22434°
Mean anomaly
271.2396°
Eccentric anomaly
271.23197°
Mean motion
3.92407 °/min
Orbital period
91.74 mins
BSTAR
-0.000011157
Loading maneuver chart data...
Computing Atmospheric mass density...
Loading historical data...
Loading historical data...
Loading historical data...
Loading historical data...
Loading historical data...
Loading historical data...
Loading historical data...

Documentation

Showing up to 5 results
|